This demonstration page uses our WeatherBlox Daily Observations layout. Learn more.

Left ArrowRight Arrow

Hourly Observations for October 10, 2022

Temp ( °F °C ) Dew Point ( °F °C ) Humidity (%) Winds ( mph kmh ) Pressure ( in mb ) Visibility ( mi km ) Precip ( " mm )
12:56 am 00:56 Clear 50 10 42 5.6 74 74 WSW 5 7 30.14 1021 10 16 0.00 0.00
1:56 am 01:56 Clear 48 8.9 41 5 76 76 SW 5 7 30.13 1020 10 16 0.00 0.00
2:56 am 02:56 Clear 48 8.9 40 4.4 73 73 SW 3 6 30.12 1020 10 16 0.00 0.00
3:56 am 03:56 Clear 45 7.2 40 4.4 82 82 Calm 30.12 1020 10 16 0.00 0.00
4:56 am 04:56 Clear 45 7.2 39 3.9 80 80 Calm 30.11 1020 10 16 0.00 0.00
5:56 am 05:56 Clear 42 5.6 39 3.9 89 89 Calm 30.12 1020 10 16 0.00 0.00
6:56 am 06:56 Clear 41 5 38 3.3 89 89 SSW 5 7 30.13 1020 10 16 0.00 0.00
7:56 am 07:56 Sunny 42 5.6 38 3.3 85 85 Calm 30.14 1021 10 16 0.00 0.00
8:56 am 08:56 Sunny 46 7.8 42 5.6 86 86 S 6 9 30.13 1020 10 16 0.00 0.00
9:56 am 09:56 Sunny 56 13.3 43 6.1 62 62 SSW 8 13 30.13 1020 10 16 0.00 0.00
10:56 am 10:56 Sunny 65 18.3 44 6.7 47 47 SSW 14 22 30.11 1020 10 16 0.00 0.00
11:56 am 11:56 Sunny 72 22.2 43 6.1 35 35 SSW 14 22 30.09 1019 10 16 0.00 0.00
12:56 pm 12:56 Sunny 75 23.9 42 5.6 31 31 S 15 24 30.06 1018 10 16 0.00 0.00
1:56 pm 13:56 Sunny 77 25 43 6.1 30 30 SSW 14 22 30.03 1017 10 16 0.00 0.00
2:56 pm 14:56 Sunny 77 25 39 3.9 25 25 SSW 16 26 29.99 1016 10 16 0.00 0.00
3:56 pm 15:56 Sunny 77 25 40 4.4 26 26 S 16 26 29.96 1015 10 16 0.00 0.00
4:56 pm 16:56 Sunny 77 25 39 3.9 25 25 S 15 24 29.94 1014 10 16 0.00 0.00
5:56 pm 17:56 Sunny 75 23.9 42 5.6 31 31 S 15 24 29.92 1013 10 16 0.00 0.00
6:56 pm 18:56 Sunny 68 20 42 5.6 39 39 SSE 12 19 29.92 1013 10 16 0.00 0.00
7:56 pm 19:56 Clear 62 16.7 42 5.6 48 48 SSE 12 19 29.93 1013 10 16 0.00 0.00
8:56 pm 20:56 Clear 58 14.4 41 5 53 53 SSE 10 17 29.92 1013 10 16 0.00 0.00
9:56 pm 21:56 Clear 53 11.7 42 5.6 66 66 SSE 7 11 29.91 1013 10 16 0.00 0.00
10:56 pm 22:56 Clear 52 11.1 43 6.1 71 71 SSE 6 9 29.88 1012 10 16 0.00 0.00
11:56 pm 23:56 Clear 53 11.7 45 7.2 74 74 S 9 15 29.86 1011 10 16 0.00 0.00

Powered by AerisWeather